Powrót do katalogu

FENGYUN 1C DEB

AktywnySSO
NORAD 30064·DEBRIS·🇨🇳 China

Wystrzelony May 10, 1999 z Taiyuan Satellite Launch Center

Loading…

Następne Przeloty (najbliższe 24 godziny)

TLE

ŚwieżeSource: Space-Track

Epoka: Sep 14, 2026, 11:55 UTC

1 30064U 99025PR  26257.49714674  .00000169  00000-0  10781-3 0  9998
2 30064  98.6584 265.1819 0066362  44.1193 108.4181 14.14437880 14033

Śledź FENGYUN 1C DEB w czasie rzeczywistym z AllMySat

Download on the App Store